Regional Weather Roundup
Issued by NWS

Home | Current Version | Previous Version | Text Only | Print | Product List | Glossary On
Versions: 1 2 3 4 5 6 7 8 9 10 11 12 13 14 15 16 17 18 19 20 21 22 23 24 25 26 27 28
000
ASUS45 KBOI 231710
RWRID

IDAHO REGIONAL WEATHER ROUNDUP
NATIONAL WEATHER SERVICE BOISE ID
1100 AM MDT TUE MAY 23 2017

NOTE: "FAIR" INDICATES FEW OR NO CLOUDS BELOW 12000 FEET
WITH NO SIGNIFICANT WEATHER AND/OR OBSTRUCTIONS TO VISIBILITY

IDZ012-014-231800-
SOUTHWEST IDAHO


CITY           SKY/WX    TMP DP  RH WIND       PRES   REMARKS
BOISE          SUNNY     73  44  35 SE6       30.12S
CALDWELL       SUNNY     74  47  38 SE10      30.10F
MOUNTAIN HOME  MOSUNNY   72  39  30 SE18      30.12F
$$

IDZ016-017-231800-
SOUTHCENTRAL IDAHO


CITY           SKY/WX    TMP DP  RH WIND       PRES   REMARKS
BURLEY         SUNNY     67  44  43 CALM      30.17F
JEROME         SUNNY     68  41  37 SE7       30.18F
TWIN FALLS     SUNNY     69  44  40 VRB3      30.17F
$$

IDZ019>023-231800-
SOUTHEAST IDAHO


CITY           SKY/WX    TMP DP  RH WIND       PRES   REMARKS
IDAHO FALLS    CLOUDY    66  39  37 NE7       30.21F
POCATELLO      SUNNY     66  47  50 N6        30.20F
REXBURG        CLOUDY    63  35  35 CALM      30.21F
$$

IDZ006-010-011-018-031-032-231800-
CENTRAL IDAHO MOUNTAINS


CITY           SKY/WX    TMP DP  RH WIND       PRES   REMARKS
MCCALL         SUNNY     61  40  45 S6        30.17F
HAILEY         MOSUNNY   64  39  39 SE7       30.25F
STANLEY          N/A     58  35  42 VRB3      30.28F
SALMON         SUNNY     61  41  48 CALM      30.15F
CHALLIS        SUNNY     63  37  38 CALM      30.20F
$$

IDZ002-004-006-007-026-231800-
NORTHERN IDAHO


CITY           SKY/WX    TMP DP  RH WIND       PRES   REMARKS
LEWISTON       SUNNY     71  53  52 N5        30.01F
LOWELL           N/A     67  46  47 N3        30.04F
COEUR D`ALENE  SUNNY     71  48  43 SE5       30.03F
MULLAN PASS    SUNNY     59  36  42 VRB5      30.18F
$$




USA.gov is the U.S. government's official web portal to all federal, state and local government web resources and services.